Location: Central Springs Elementary School at Manly
(43.2859°N, 93.1959°W)
Time: 02:15:16
(UTC+00:00)

Envisat - Pass Details

Date: 16 October 2024
Orbit: 762 x 763 km, 98.3° (Epoch: 04 November)

Event Time Altitude Azimuth Distance (km) Brightness Sun altitude
Rises 09:34:20 0° 11° (N) 3,235 6.6 -32.1°
Reaches altitude 10° 09:36:39 10° 10° (N) 2,305 5.8 -31.7°
Enters shadow 09:38:54 27° 6° (N) 1,445 4.6 -31.3°
